Back to catalog

SL-14 DEB

AlivePO
NORAD 39974·DEBRIS·🇷🇺 Russia

Launched Aug 18, 1987 from Plesetsk Cosmodrome

Loading…

Next Passes (next 24 hours)

TLE

FreshSource: Space-Track

Epoch: Sep 14, 2026, 13:25 UTC

1 39974U 87068DA  26257.55969324  .00001788  00000-0  86095-3 0  9991
2 39974  82.5393 352.9560 0017986 144.5143 229.3615 14.18226266630552

Track SL-14 DEB in real time with AllMySat

Download on the App Store